Regional Weather Roundup
Issued by NWS

Home | Current Version | Previous Version | Graphics & Text | Print | Product List | Glossary Off
Versions: 1 2 3 4 5 6 7 8 9 10 11 12 13 14 15 16 17 18 19 20 21 22 23 24 25 26 27 28 29 30 31 32 33 34 35 36 37 38 39 40 41 42 43 44 45 46 47 48 49 50

000
ASUS43 KMKX 280500
RWRWI

WISCONSIN REGIONAL WEATHER ROUNDUP
NATIONAL WEATHER SERVICE MILWAUKEE/SULLIVAN WI
1100 PM CST SAT DEC 27 2014

NOTE: "FAIR" INDICATES FEW OR NO CLOUDS BELOW 12,000 FEET WITH NO
SIGNIFICANT WEATHER AND/OR OBSTRUCTIONS TO VISIBILITY.

WIZ001-002-006>008-014>016-023>028-280600-
NORTHWEST WISCONSIN

CITY           SKY/WX    TMP DP  RH WIND       PRES   REMARKS
SUPERIOR ARPT  PTCLDY    21  11  66 SW6       30.04R WCI  13
ASHLAND        CLOUDY    19  11  70 SW8       30.02S WCI   9
HAYWARD        PTCLDY    17  10  74 SW6       30.03R WCI   9
SIREN          CLEAR     14   9  80 SW8       30.07S WCI   3
CUMBERLAND     CLEAR     12   7  79 W7        30.05S WCI   2
RICE LAKE      CLEAR     14   9  81 W7        30.09R WCI   4
CHETEK         CLOUDY    14  11  87 W3        30.08R
LADYSMITH      CLOUDY    13  11  91 S5        30.06S WCI   5
EAU CLAIRE     NOT AVBL
MENOMONIE      PTCLDY    12   6  76 SW5       30.12R WCI   4
NEW RICHMOND   CLEAR      8   5  87 SW6       30.11S WCI  -2
OSCEOLA        CLEAR     12   8  83 SW5       30.13S WCI   4
$$

WIZ003>005-009-010-017-018-280600-
NORTH CENTRAL WISCONSIN

CITY           SKY/WX    TMP DP  RH WIND       PRES   REMARKS
MANITOWISH WTR MOCLDY     9   8  95 SW3       29.97S
ARBOR VITAE    CLOUDY    14  12  92 CALM      29.98S
WOODRUFF       CLOUDY    14  12  92 CALM      29.98S
RHINELANDER    PTCLDY     9   7  92 W6        29.99S WCI  -1
EAGLE RIVER    CLEAR     10   9  96 SW7       29.97S WCI  -1
LAND O LAKES   PTCLDY    15  13  89 W3        29.96S
PHILLIPS       MOCLDY    13  11  92 SW5       30.00S WCI   5
TOMAHAWK       PTCLDY    13  11  91 CALM      30.01S
MEDFORD        MOCLDY    12  10  93 SW6       30.03S WCI   2
MERRILL        CLEAR     11  11  97 CALM      30.03S
$$

WIZ029-030-035-036-043>047-280600-
CENTRAL WISCONSIN

CITY           SKY/WX    TMP DP  RH WIND       PRES   REMARKS
WAUSAU         PTCLDY    16  13  88 SW9       30.04S WCI   4
MOSINEE        CLEAR     14  14 100 SW6       30.06S WCI   5
MARSHFIELD     CLEAR     16  12  84 W9        30.06R WCI   4
STEVENS POINT  CLEAR     19  16  89 W7        30.08S WCI   9
WAUPACA        CLEAR     24  18  78 W7        30.09S WCI  16
WAUTOMA        NOT AVBL
WISC RAPIDS    CLEAR     20  15  81 VRB7      30.10S WCI  11
CAMP DOUGLAS   NOT AVBL
$$

WIZ011>013-019>022-031-037>040-048>050-280600-
NORTHEAST WISCONSIN

CITY           SKY/WX    TMP DP  RH WIND       PRES   REMARKS
ANTIGO         CLEAR     13  11  95 W7        30.02R WCI   2
SHAWANO        CLEAR     25  19  77 W9        30.07R WCI  15
OCONTO         CLEAR     27  22  80 W8        30.04R WCI  19
STURGEON BAY   CLEAR     28  19  69 W15       30.04R WCI  17
GREEN BAY      CLOUDY    28  21  75 W13       30.07R WCI  17
MANITOWOC      NOT AVBL
APPLETON       PTCLDY    27  21  80 W8        30.07R WCI  18
CLINTONVILLE   CLEAR     23  18  80 W8        30.07S WCI  14
OSHKOSH        CLOUDY    27  19  72 W13       30.09R WCI  16
$$

WIZ032>034-041-042-053>061-280600-
SOUTHWEST WISCONSIN

CITY           SKY/WX    TMP DP  RH WIND       PRES   REMARKS
LA CROSSE      CLEAR     17   9  70 SW3       30.16F
SPARTA         PTCLDY    19  16  85 W8        30.14S WCI   9
VIROQUA        CLEAR     17  16  94 W8        30.11S WCI   7
BOSCOBEL       CLEAR     21  14  74 W5        30.17S WCI  15
PRAIRIE DU CHI CLEAR     20  12  72 W5        30.18S WCI  13
PLATTEVILLE    PTCLDY    21  18  88 CALM      30.16R
$$

WIZ056-057-062-063-064-067-068-280600-
SOUTH CENTRAL WISCONSIN

CITY           SKY/WX    TMP DP  RH WIND       PRES   REMARKS
REEDSBURG      CLEAR     21  18  86 W3        30.12S
BARABOO/DELLS  PTCLDY    23  18  83 W6        30.11R WCI  15
LONE ROCK      NOT AVBL
MINERAL POINT  CLOUDY    23  19  86 W9        30.12S WCI  13
MADISON        MOCLDY    27  19  72 W7        30.12R WCI  19
MIDDLETON      CLOUDY    27  20  75 W9        30.12R WCI  18
WATERTOWN      CLOUDY    29  22  74 W7        30.10R WCI  22
MONROE         CLOUDY    27  21  80 W12       30.12S WCI  16
JANESVILLE     CLOUDY    30  23  74 W10       30.13R WCI  21
$$

WIZ051-052-058>065-066-070>072-280600-
SOUTHEAST WISCONSIN

CITY           SKY/WX    TMP DP  RH WIND       PRES   REMARKS
MILWAUKEE      CLOUDY    31  22  69 W13       30.09R WCI  21
WAUKESHA       CLOUDY    28  21  74 W13       30.10S WCI  18
MILWAUKEE/TIMM CLOUDY    30  21  69 W8        30.09S WCI  23
RACINE         MOCLDY    31  23  72 NW9       30.10S WCI  23
BURLINGTON     CLOUDY    29  23  76 W8        30.10S WCI  21
KENOSHA        CLOUDY    32  24  72 W16       30.08F WCI  21
FOND DU LAC    PTCLDY    26  18  71 NW10      30.10R WCI  16
SHEBOYGAN      CLOUDY    29  21  72 W16       30.07R WCI  17
WEST BEND      CLOUDY    30  23  74 W12       30.08R WCI  21
JUNEAU         CLOUDY    28  21  77 W7        30.11R WCI  20
$$

LSZ147-162-280600-
LAKE SUPERIOR

STATION/POSITION TIME  TEMP    WIND        PRES    WAVE
                       AIR SEA DIR/SP/G            HT/PER
                 (UTC) (F)     (DEG/KT/KT) (MB)    (FT/S)
DEVILS ISLAND    0400   25     290/ 23/ 26 1016.5R
PORT WING        0400   26     260/ 11/ 17 1016.6S
SAXON HARBOR     0400   21     210/  6/  9 1016.6
$$

LMZ867-665-643>646-280600-
LAKE MICHIGAN

STATION/POSITION TIME  TEMP    WIND        PRES    WAVE
                       AIR SEA DIR/SP/G            HT/PER
                 (UTC) (F)     (DEG/KT/KT) (MB)    (FT/S)
CHAMBERS ISLAND  0400   31     230/  6/ 12 1016.3R
NORTHPORT PIER   0400   32     300/  9/ 17 1015.6R
SISTER BAY       0313          320/ 11/ 13   N/A
ALGOMA LAKESHORE 0245          300/  6/ 12   N/A
KEWAUNEE LAKESHO 0400   32     290/  9/ 15 1015.8R
SHEBOYGAN LAKESH 0400   31 38  270/ 16/ 18 1018.5R
PORT WASHINGTON  0400   31     280/  9/ 17 1019.3R
MILWAUKEE LAKESH 0400   32     300/ 15/ 18   N/A
KENOSHA   LAKESH 0400   33     270/ 11/ 15 1019.0R
$$

TC  - TEMPERATURE IN CELSIUS
VSB - VISIBILITY IN STATUTE MILES
WCI - WIND CHILL INDEX
HX  - HEAT INDEX



USA.gov is the U.S. government's official web portal to all federal, state and local government web resources and services.